Regional Weather Roundup
Issued by NWS

Home | Current Version | Previous Version | Text Only | Print | Product List | Glossary Off
Versions: 1 2 3 4 5 6 7 8 9 10 11 12 13 14 15 16 17 18 19 20 21 22 23 24 25 26 27 28 29 30 31 32 33 34 35 36 37 38 39 40 41 42 43 44 45 46 47 48 49 50

679
ASUS43 KDMX 031103
RWRIA

WEATHER ROUNDUP FOR IOWA
NATIONAL WEATHER SERVICE DES MOINES IA
600 AM CDT TUE MAY 03 2016

NOTE: "FAIR" INDICATES FEW OR NO CLOUDS BELOW 12,000 FEET WITH NO
SIGNIFICANT WEATHER AND/OR OBSTRUCTIONS TO VISIBILITY.

* - THESE STATIONS ARE NOT NWS STATIONS...THUS NOT UNDER NWS
QUALITY CONTROL.  THEY ALSO DO NOT REPORT WEATHER SUCH
AS PRECIPITATION OR FOG.

IAZ001>003-012>014-020>022-031>034-043>046-031200-
   NORTHWEST IOWA

CITY           SKY/WX    TMP DP  RH WIND       PRES   REMARKS
CARROLL *      CLEAR     43  39  87 CALM      30.03S
CHEROKEE *     FOG       36  36 100 CALM      30.03S VSB 1/4
DENISON *      CLEAR     37  36  93 CALM      30.02S
LE MARS *      CLEAR     37  37 100 CALM      30.04S
ORANGE CITY *  CLEAR     43  39  87 CALM      30.02S
SHELDON *      CLEAR     37  36  93 CALM      30.01S
SIOUX CITY     CLEAR     43  37  79 CALM      30.03S
SPENCER        CLEAR     38  35  89 NW5       30.02S WCI  34
STORM LAKE *   CLEAR     45  36  70 SW8       30.03S
$$

IAZ055>058-069>071-079>083-090>094-031200-
   SOUTHWEST IOWA

CITY           SKY/WX    TMP DP  RH WIND       PRES   REMARKS
ATLANTIC *     CLEAR     37  37 100 CALM      30.04S
AUDUBON *      CLEAR     37  34  87 CALM      30.05R
CLARINDA *       N/A    N/A N/A N/A MISG        N/A
COUNCIL BLFS * CLEAR     46  41  81 SW6       30.04S
CRESTON *      CLEAR     45  41  87 SW6       30.05F
HARLAN  *      CLEAR     37  37 100 CALM      30.07S
LAMONI         MOCLDY    45  41  86 W5        30.04S
SHENANDOAH *   PTCLDY    43  43 100 CALM      30.06S
$$

IAZ047>049-059>061-072>074-084-031200-
   CENTRAL IOWA

CITY           SKY/WX    TMP DP  RH WIND       PRES   REMARKS
AMES           CLEAR     40  38  93 W3        30.03S
ANKENY *       CLEAR     37  37 100 CALM      30.04S FOG
BOONE *        CLEAR     45  41  87 W7        30.02S
CHARITON *     CLEAR     43  43 100 W6        30.03F
DES MOINES     PTCLDY    46  40  79 W3        30.04S
GRINNELL*      CLEAR     41  39  93 W5        30.04S
KNOXVILLE *    CLEAR     41  39  93 SW5       30.02S
MARSHALLTOWN   CLEAR     40  38  93 W3        30.02S
NEWTON *       CLEAR     43  43 100 W6        30.03S
PELLA *        CLEAR     43  43  98 W5        30.04F
$$

IAZ004>006-015-016-023>025-035-036-031200-
   NORTH CENTRAL IOWA

CITY           SKY/WX    TMP DP  RH WIND       PRES   REMARKS
ALGONA *       CLEAR     43  41  93 SW8       30.02S
CLARION *      CLEAR     39  39 100 S6        30.02S WCI  35
ESTHERVILLE    CLEAR     41  37  86 W9        30.01S
FORT DODGE *   CLEAR     37  34  87 CALM      30.03S VSB 1
MASON CITY     CLEAR     43  39  86 SW7       30.02S
FOREST CITY *  FOG       34  34 100 CALM      30.01S VSB 1
WEBSTER CITY * CLEAR     41  39  93 SW8       30.01S
IOWA FALLS *     N/A     43  39  87 W6        30.03F
$$

IAZ007>011-017>019-026>030-037>042-050>054-066-031200-
   NORTHEAST IOWA

CITY           SKY/WX    TMP DP  RH WIND       PRES   REMARKS
CEDAR RAPIDS   CLEAR     41  39  93 W6        30.01S
CHARLES CITY * CLEAR     45  43  93 W8        30.01S
CLINTON *      CLEAR     40  38  93 W7        30.01R
DECORAH *      CLEAR     45  39  81 W3        29.98F
DUBUQUE        CLEAR     42  38  85 W3        29.99S
MONTICELLO *   PTCLDY    41  39  93 CALM      30.01R
OELWEIN *      CLEAR     41  41 100 W7        30.01S
WATERLOO       CLEAR     39  37  92 CALM      30.01S
$$

IAZ064-065-067-068-078-031200-
   EAST CENTRAL IOWA

CITY           SKY/WX    TMP DP  RH WIND       PRES   REMARKS
DAVENPORT      PTCLDY    40  38  93 W7        30.01S
IOWA CITY      CLEAR     41  37  86 W6        30.03S
MT. PLEASANT * CLEAR     48  45  87 NW7       30.02S
MUSCATINE *    CLEAR     45  39  81 W6        30.02S
QUAD CITIES    CLEAR     40  37  89 CALM      30.01R
$$

IAZ062-063-075>077-085>089-095>099-031200-
   SOUTHEAST IOWA

CITY           SKY/WX    TMP DP  RH WIND       PRES   REMARKS
BURLINGTON     CLEAR     46  43  89 NW7       30.01S
FAIRFIELD *    CLEAR     43  41  93 W6        30.03S
FORT MADISON * PTCLDY    46  45  93 NW5       30.03S
KEOKUK *       CLOUDY    48  46  93 CALM      30.02S
OSKALOOSA *      N/A     39  37  93 W7        30.03F WCI  34
OTTUMWA        CLEAR     40  39  97 W8        30.03S WCI  34
WASHINGTON *   CLEAR     43  43 100 W8        30.03S
$$

ABBREVIATIONS USED IN REMARKS
   TC - TEMPERATURES IN CELSIUS
  WCI - WIND CHILL INDEX
   HX - HEAT INDEX
  VSB - VISIBILITY
$$





USA.gov is the U.S. government's official web portal to all federal, state and local government web resources and services.